Regional Weather Roundup
Issued by NWS Albany, NY

Home | Current Version | Previous Version | Text Only | Print | Product List | Glossary On
Versions: 1 2 3 4 5 6 7 8 9 10 11 12 13 14 15 16 17 18 19 20 21 22 23 24 25 26 27 28
000
ASUS41 KALY 202310
RWRALY

NEW YORK STATE HOURLY WEATHER ROUNDUP
NATIONAL WEATHER SERVICE ALBANY NY
700 PM EDT FRI APR 20 2018

NOTE: "FAIR" INDICATES FEW OR NO CLOUDS BELOW 12,000 FEET WITH NO
SIGNIFICANT WEATHER AND/OR NO OBSTRUCTIONS TO VISIBILITY.

NYZ032-033-038>043-046>054-057>066-NYZ062>081-082-084-210000-
EAST


CITY           SKY/WX    TMP DP  RH WIND       PRES   REMARKS
ALBANY         MOCLDY    41  23  48 NW18      30.29R
GLENS FALLS    FAIR      41  25  53 NW13G22   30.27R
POUGHKEEPSIE   FAIR      43  22  43 NW15G24   30.27R
NEWBURGH       PTCLDY    43  25  49 NW16G23   30.28R
MONTGOMERY     FAIR      42  24  49 NW15G28   30.27R
WHITE PLAINS   FAIR      44  23  43 NW17G25   30.23R
ISLIP          FAIR      49  26  41 W12G21    30.21R
NEW YORK CITY  FAIR      47  25  42 N14       30.26R
CENTRAL PARK   FAIR      45  23  42 NW10G21   30.29R
$$

NYZ005>009-017-018-044>046-055-056-210000-
CENTRAL


CITY           SKY/WX    TMP DP  RH WIND       PRES   REMARKS
FULTON         FAIR      41  26  55 W13       30.35S
SYRACUSE       FAIR      42  25  50 W13       30.35R
ROME           MOCLDY    41  26  55 NW16      30.34R
ELMIRA         CLOUDY    44  25  47 NW12      30.35R
BINGHAMTON     MOCLDY    36  23  59 NW13G18   30.30R WCI  27
MONTICELLO     MOCLDY    36  22  56 NW14      30.28R WCI  27
$$

NYZ026>034-041>043-087-210000-
NORTH


CITY           SKY/WX    TMP DP  RH WIND       PRES   REMARKS
WATERTOWN      FAIR      39  31  72 W12       30.33S WCI  32
FORT DRUM      NOT AVBL
OGDENSBURG     MOCLDY    47  26  42 NW10      30.28S
MASSENA        FAIR      47  25  42 NW9G17    30.27R
SARANAC LAKE   CLOUDY    36  26  67 VRB7      30.21R WCI  30
PLATTSBURGH    CLOUDY    45  26  47 NW13      30.22
$$

NYZ001>004-010>016-019>021-085-210000-
WEST


CITY           SKY/WX    TMP DP  RH WIND       PRES   REMARKS
NIAGARA FALLS  FAIR      46  24  42 NW8       30.40S
BUFFALO        FAIR      40  28  62 SW9       30.40S WCI  34
DUNKIRK        FAIR      41  27  57 W13       30.42S
JAMESTOWN      FAIR      40  25  55 NW9       30.38R WCI  34
WELLSVILLE     FAIR      38  24  57 NW10      30.34F WCI  31
ROCHESTER      FAIR      44  23  43 NW15      30.38S
PENN YAN       FAIR      43  23  45 W9G20     30.36S
$$

             KEY
       WCI = WIND CHILL INDEX
       VSB = VISIBILITY
       HX  = HEAT INDEX
$$




USA.gov is the U.S. government's official web portal to all federal, state and local government web resources and services.